QTR1168 OTHH-OERK

Flight info

Callsign QTR1168
Flight time 0h 51m
Altitude 36000
Route ULIKA M430 KOBOX
Aircraft B789/H-SDE1E2E3FGHIJ2J3J4J5M1RWXY/LB1D1

Departure

Time 2026-05-05 00:19
Airport Hamad International Airport (OTHH)

Arrival

Time 2026-05-05 01:10
Airport King Khalid International Airport (OERK)
Time Latitude Longitude Altitude Speed Heading
2026-05-04 23:50 25.26221 51.61804 28 ft 0 kts 330°
2026-05-05 00:00 25.26219 51.61805 28 ft 2 kts 330°
2026-05-05 00:00 25.26204 51.61815 26 ft 2 kts 329°
2026-05-05 00:01 25.26190 51.61824 26 ft 2 kts 329°
2026-05-05 00:01 25.26175 51.61833 26 ft 2 kts 338°
2026-05-05 00:01 25.26159 51.61833 25 ft 2 kts 27°
2026-05-05 00:01 25.26146 51.61823 26 ft 2 kts 41°
2026-05-05 00:02 25.26134 51.61810 26 ft 2 kts 50°
2026-05-05 00:02 25.26125 51.61795 28 ft 2 kts 60°
2026-05-05 00:02 25.26118 51.61779 27 ft 2 kts 66°
2026-05-05 00:02 25.26115 51.61774 28 ft 0 kts 68°
2026-05-05 00:04 25.26116 51.61774 28 ft 0 kts 68°
2026-05-05 00:04 25.26118 51.61782 27 ft 2 kts 68°
2026-05-05 00:05 25.26126 51.61801 28 ft 4 kts 67°
2026-05-05 00:05 25.26137 51.61832 28 ft 5 kts 68°
2026-05-05 00:05 25.26153 51.61875 28 ft 7 kts 68°
2026-05-05 00:05 25.26172 51.61928 28 ft 8 kts 68°
2026-05-05 00:06 25.26195 51.61991 28 ft 10 kts 68°
2026-05-05 00:06 25.26227 51.62057 28 ft 9 kts 40°
2026-05-05 00:06 25.26283 51.62058 28 ft 8 kts 341°
2026-05-05 00:06 25.26341 51.62034 28 ft 9 kts 339°
2026-05-05 00:07 25.26405 51.62006 28 ft 11 kts 338°
2026-05-05 00:07 25.26478 51.61974 28 ft 12 kts 338°
2026-05-05 00:07 25.26556 51.61939 27 ft 13 kts 338°
2026-05-05 00:07 25.26640 51.61902 27 ft 13 kts 338°
2026-05-05 00:08 25.26727 51.61864 27 ft 14 kts 338°
2026-05-05 00:08 25.26819 51.61823 27 ft 15 kts 338°
2026-05-05 00:08 25.26914 51.61781 27 ft 15 kts 338°
2026-05-05 00:08 25.27013 51.61737 28 ft 15 kts 338°
2026-05-05 00:09 25.27114 51.61692 28 ft 16 kts 338°
2026-05-05 00:09 25.27218 51.61646 28 ft 16 kts 338°
2026-05-05 00:09 25.27323 51.61599 28 ft 17 kts 338°
2026-05-05 00:09 25.27421 51.61538 27 ft 15 kts 295°
2026-05-05 00:10 25.27402 51.61436 27 ft 14 kts 248°
2026-05-05 00:10 25.27365 51.61334 28 ft 15 kts 248°
2026-05-05 00:10 25.27325 51.61223 28 ft 16 kts 248°
2026-05-05 00:10 25.27284 51.61111 28 ft 16 kts 248°
2026-05-05 00:11 25.27241 51.60993 28 ft 17 kts 249°
2026-05-05 00:11 25.27197 51.60870 28 ft 17 kts 248°
2026-05-05 00:11 25.27152 51.60743 28 ft 18 kts 249°
2026-05-05 00:11 25.27104 51.60614 27 ft 18 kts 248°
2026-05-05 00:12 25.27056 51.60481 27 ft 19 kts 248°
2026-05-05 00:12 25.27006 51.60345 27 ft 19 kts 248°
2026-05-05 00:12 25.26962 51.60220 26 ft 14 kts 249°
2026-05-05 00:12 25.26964 51.60128 29 ft 11 kts 319°
2026-05-05 00:13 25.27025 51.60099 31 ft 9 kts 339°
2026-05-05 00:13 25.27087 51.60072 29 ft 10 kts 338°
2026-05-05 00:13 25.27152 51.60043 30 ft 10 kts 338°
2026-05-05 00:13 25.27218 51.60014 30 ft 11 kts 338°
2026-05-05 00:14 25.27292 51.59982 30 ft 12 kts 338°
2026-05-05 00:14 25.27372 51.59947 31 ft 13 kts 338°
2026-05-05 00:14 25.27456 51.59909 28 ft 14 kts 338°
2026-05-05 00:14 25.27545 51.59870 30 ft 14 kts 338°
2026-05-05 00:15 25.27639 51.59828 30 ft 15 kts 337°
2026-05-05 00:15 25.27736 51.59785 28 ft 15 kts 338°
2026-05-05 00:15 25.27836 51.59742 30 ft 16 kts 338°
2026-05-05 00:15 25.27939 51.59696 28 ft 16 kts 338°
2026-05-05 00:16 25.28045 51.59649 27 ft 17 kts 338°
2026-05-05 00:16 25.28154 51.59600 28 ft 17 kts 338°
2026-05-05 00:16 25.28265 51.59552 31 ft 17 kts 338°
2026-05-05 00:16 25.28354 51.59512 31 ft 12 kts 338°
2026-05-05 00:17 25.28436 51.59476 31 ft 13 kts 338°
2026-05-05 00:17 25.28520 51.59439 26 ft 13 kts 338°
2026-05-05 00:17 25.28598 51.59389 31 ft 12 kts 293°
2026-05-05 00:17 25.28579 51.59300 28 ft 13 kts 249°
2026-05-05 00:18 25.28533 51.59234 24 ft 8 kts 176°
2026-05-05 00:18 25.28462 51.59260 25 ft 26 kts 159°
2026-05-05 00:18 25.28091 51.59424 22 ft 92 kts 158°
2026-05-05 00:18 25.27295 51.59776 23 ft 152 kts 158°
2026-05-05 00:19 25.26172 51.60271 313 ft 183 kts 153°
2026-05-05 00:19 25.24927 51.60822 913 ft 204 kts 155°
2026-05-05 00:19 25.23537 51.61430 1504 ft 226 kts 157°
2026-05-05 00:19 25.21973 51.62113 2048 ft 254 kts 157°
2026-05-05 00:20 25.20305 51.62848 2613 ft 261 kts 157°
2026-05-05 00:20 25.18621 51.63590 3181 ft 267 kts 157°
2026-05-05 00:20 25.16883 51.64353 3749 ft 269 kts 157°
2026-05-05 00:20 25.15125 51.65087 4327 ft 271 kts 164°
2026-05-05 00:21 25.13256 51.64964 4918 ft 273 kts 205°
2026-05-05 00:21 25.11729 51.63746 5537 ft 269 kts 233°
2026-05-05 00:21 25.10870 51.61960 6123 ft 264 kts 261°
2026-05-05 00:21 25.10815 51.59912 6742 ft 272 kts 284°
2026-05-05 00:22 25.11187 51.57858 7335 ft 274 kts 285°
2026-05-05 00:22 25.11569 51.55774 7950 ft 279 kts 284°
2026-05-05 00:22 25.11915 51.53657 8569 ft 280 kts 283°
2026-05-05 00:22 25.12253 51.51533 9193 ft 282 kts 284°
2026-05-05 00:23 25.12599 51.49421 9798 ft 283 kts 284°
2026-05-05 00:23 25.12952 51.47294 10395 ft 284 kts 283°
2026-05-05 00:23 25.13311 51.45108 10996 ft 286 kts 283°
2026-05-05 00:23 25.13660 51.42968 11580 ft 287 kts 283°
2026-05-05 00:24 25.14015 51.40800 12189 ft 289 kts 283°
2026-05-05 00:24 25.14372 51.38616 12812 ft 290 kts 282°
2026-05-05 00:24 25.14612 51.37150 13234 ft 291 kts 282°
2026-05-05 00:24 25.14969 51.34965 13827 ft 293 kts 282°
2026-05-05 00:25 25.15336 51.32713 14404 ft 296 kts 282°
2026-05-05 00:25 25.15704 51.30456 14991 ft 303 kts 281°
2026-05-05 00:25 25.16087 51.28103 15595 ft 320 kts 281°
2026-05-05 00:25 25.16477 51.25703 16206 ft 337 kts 280°
2026-05-05 00:26 25.16855 51.23376 16779 ft 351 kts 280°
2026-05-05 00:26 25.17294 51.20667 17419 ft 365 kts 279°
2026-05-05 00:26 25.17749 51.17858 18090 ft 378 kts 279°
2026-05-05 00:26 25.18219 51.14951 18666 ft 389 kts 279°
2026-05-05 00:27 25.18694 51.12013 19244 ft 399 kts 279°
2026-05-05 00:27 25.19187 51.08959 19842 ft 408 kts 279°
2026-05-05 00:27 25.19683 51.05883 20437 ft 416 kts 279°
2026-05-05 00:27 25.20194 51.02711 21059 ft 422 kts 279°
2026-05-05 00:28 25.20711 50.99497 21691 ft 428 kts 279°
2026-05-05 00:28 25.21234 50.96239 22336 ft 432 kts 279°
2026-05-05 00:28 25.21760 50.92958 22990 ft 436 kts 279°
2026-05-05 00:28 25.22288 50.89657 23591 ft 439 kts 279°
2026-05-05 00:29 25.22821 50.86322 24143 ft 441 kts 279°
2026-05-05 00:29 25.23354 50.82979 24707 ft 442 kts 279°
2026-05-05 00:29 25.23888 50.79630 25285 ft 443 kts 279°
2026-05-05 00:29 25.24426 50.76246 25634 ft 450 kts 278°
2026-05-05 00:30 25.24970 50.72820 25989 ft 455 kts 278°
2026-05-05 00:30 25.25520 50.69354 26356 ft 459 kts 278°
2026-05-05 00:30 25.26060 50.65864 26722 ft 462 kts 276°
2026-05-05 00:30 25.26221 50.62318 27111 ft 462 kts 268°
2026-05-05 00:31 25.26176 50.58746 27492 ft 465 kts 268°
2026-05-05 00:31 25.26120 50.55218 27862 ft 467 kts 268°
2026-05-05 00:31 25.26059 50.51616 28243 ft 468 kts 269°
2026-05-05 00:31 25.26136 50.48026 28654 ft 469 kts 270°
2026-05-05 00:32 25.26212 50.44423 29049 ft 469 kts 270°
2026-05-05 00:32 25.26275 50.40830 29449 ft 467 kts 270°
2026-05-05 00:32 25.26347 50.37252 29862 ft 464 kts 270°
2026-05-05 00:32 25.26427 50.33687 30192 ft 463 kts 270°
2026-05-05 00:33 25.26500 50.30134 30533 ft 461 kts 270°
2026-05-05 00:33 25.26568 50.26600 30881 ft 459 kts 270°
2026-05-05 00:33 25.26636 50.23073 31231 ft 458 kts 270°
2026-05-05 00:33 25.26706 50.19561 31589 ft 457 kts 270°
2026-05-05 00:34 25.26774 50.16063 31943 ft 455 kts 270°
2026-05-05 00:34 25.26840 50.12566 32309 ft 453 kts 269°
2026-05-05 00:34 25.26904 50.09136 32672 ft 452 kts 269°
2026-05-05 00:34 25.26969 50.05658 33050 ft 450 kts 269°
2026-05-05 00:35 25.27032 50.02210 33424 ft 449 kts 269°
2026-05-05 00:35 25.27095 49.98771 33797 ft 447 kts 269°
2026-05-05 00:35 25.27156 49.95334 34130 ft 445 kts 269°
2026-05-05 00:35 25.27215 49.91953 34458 ft 444 kts 269°
2026-05-05 00:36 25.27275 49.88542 34805 ft 442 kts 269°
2026-05-05 00:36 25.27334 49.85139 35147 ft 441 kts 269°
2026-05-05 00:36 25.27391 49.81748 35498 ft 440 kts 269°
2026-05-05 00:36 25.27447 49.78371 35772 ft 441 kts 269°
2026-05-05 00:37 25.27503 49.74973 35767 ft 443 kts 269°
2026-05-05 00:37 25.27613 49.68243 35771 ft 433 kts 269°
2026-05-05 00:38 25.27716 49.61600 35763 ft 432 kts 269°
2026-05-05 00:38 25.27818 49.54966 35764 ft 432 kts 269°
2026-05-05 00:39 25.27889 49.48377 35778 ft 430 kts 265°
2026-05-05 00:39 25.27382 49.41789 35784 ft 431 kts 264°
2026-05-05 00:40 25.26856 49.35141 35787 ft 432 kts 263°
2026-05-05 00:40 25.26321 49.28561 35793 ft 432 kts 263°
2026-05-05 00:41 25.25788 49.21955 35798 ft 431 kts 263°
2026-05-05 00:41 25.25249 49.15369 35803 ft 431 kts 263°
2026-05-05 00:42 25.24637 49.08802 35813 ft 429 kts 262°
2026-05-05 00:42 25.24001 49.02275 35817 ft 429 kts 262°
2026-05-05 00:43 25.23335 48.95729 35820 ft 429 kts 262°
2026-05-05 00:43 25.22676 48.89159 35821 ft 429 kts 262°
2026-05-05 00:44 25.22010 48.82612 35827 ft 428 kts 262°
2026-05-05 00:44 25.21346 48.76083 35827 ft 428 kts 262°
2026-05-05 00:45 25.20677 48.69550 35833 ft 428 kts 262°
2026-05-05 00:45 25.20005 48.63008 35832 ft 429 kts 262°
2026-05-05 00:46 25.19362 48.56495 35833 ft 429 kts 263°
2026-05-05 00:46 25.18741 48.49910 35429 ft 434 kts 263°
2026-05-05 00:46 25.18416 48.46612 35081 ft 431 kts 263°
2026-05-05 00:47 25.18096 48.43322 34741 ft 429 kts 263°
2026-05-05 00:47 25.17779 48.40031 34387 ft 431 kts 263°
2026-05-05 00:47 25.17460 48.36742 34057 ft 432 kts 263°
2026-05-05 00:47 25.17136 48.33441 33710 ft 434 kts 263°
2026-05-05 00:48 25.16811 48.30122 33333 ft 436 kts 263°
2026-05-05 00:48 25.16485 48.26789 32969 ft 437 kts 263°
2026-05-05 00:48 25.16157 48.23448 32581 ft 439 kts 263°
2026-05-05 00:48 25.15826 48.20089 32217 ft 441 kts 263°
2026-05-05 00:49 25.15492 48.16710 31860 ft 443 kts 263°
2026-05-05 00:49 25.15155 48.13305 31496 ft 446 kts 263°
2026-05-05 00:49 25.14817 48.09902 31151 ft 448 kts 263°
2026-05-05 00:49 25.14475 48.06472 30805 ft 449 kts 263°
2026-05-05 00:50 25.14134 48.03048 30465 ft 448 kts 263°
2026-05-05 00:50 25.13793 47.99636 30128 ft 447 kts 263°
2026-05-05 00:50 25.13451 47.96227 29761 ft 446 kts 263°
2026-05-05 00:50 25.13110 47.92837 29363 ft 444 kts 263°
2026-05-05 00:51 25.12769 47.89452 28972 ft 443 kts 263°
2026-05-05 00:51 25.12428 47.86077 28580 ft 442 kts 263°
2026-05-05 00:51 25.12107 47.82716 28199 ft 440 kts 266°
2026-05-05 00:51 25.12016 47.79352 27831 ft 439 kts 266°
2026-05-05 00:52 25.11902 47.75987 27460 ft 438 kts 266°
2026-05-05 00:52 25.11785 47.72684 27090 ft 436 kts 266°
2026-05-05 00:52 25.11680 47.69289 26731 ft 435 kts 266°
2026-05-05 00:52 25.11581 47.65961 26298 ft 435 kts 266°
2026-05-05 00:53 25.11475 47.62672 25848 ft 434 kts 266°
2026-05-05 00:53 25.11365 47.59357 25378 ft 431 kts 266°
2026-05-05 00:53 25.11257 47.56054 24922 ft 429 kts 267°
2026-05-05 00:53 25.11151 47.52776 24472 ft 427 kts 267°
2026-05-05 00:54 25.11044 47.49506 24021 ft 425 kts 267°
2026-05-05 00:54 25.10935 47.46257 23589 ft 423 kts 267°
2026-05-05 00:54 25.10827 47.43024 23098 ft 421 kts 267°
2026-05-05 00:54 25.10720 47.39818 22577 ft 414 kts 267°
2026-05-05 00:55 25.10614 47.36674 22065 ft 405 kts 267°
2026-05-05 00:55 25.10510 47.33605 21554 ft 396 kts 267°
2026-05-05 00:55 25.10406 47.30598 21064 ft 388 kts 267°
2026-05-05 00:55 25.10305 47.27657 20578 ft 380 kts 267°
2026-05-05 00:56 25.10205 47.24763 20094 ft 373 kts 267°
2026-05-05 00:56 25.10106 47.21917 19613 ft 367 kts 267°
2026-05-05 00:56 25.10008 47.19126 19154 ft 361 kts 267°
2026-05-05 00:56 25.09913 47.16416 18698 ft 355 kts 267°
2026-05-05 00:57 25.09848 47.14583 18391 ft 351 kts 267°
2026-05-05 00:57 25.09782 47.12720 18059 ft 348 kts 267°
2026-05-05 00:57 25.09688 47.10072 17538 ft 343 kts 267°
2026-05-05 00:57 25.09594 47.07456 17022 ft 338 kts 267°
2026-05-05 00:58 25.09501 47.04875 16511 ft 333 kts 267°
2026-05-05 00:58 25.09409 47.02342 16020 ft 329 kts 267°
2026-05-05 00:58 25.09318 46.99835 15535 ft 324 kts 267°
2026-05-05 00:58 25.09228 46.97364 15059 ft 320 kts 267°
2026-05-05 00:59 25.09139 46.94932 14585 ft 316 kts 267°
2026-05-05 00:59 25.08814 46.92562 14141 ft 310 kts 251°
2026-05-05 00:59 25.07890 46.90437 13697 ft 306 kts 241°
2026-05-05 00:59 25.06832 46.88404 13176 ft 303 kts 241°
2026-05-05 01:00 25.05864 46.86359 12699 ft 298 kts 252°
2026-05-05 01:00 25.05499 46.84133 12216 ft 295 kts 269°
2026-05-05 01:00 25.05807 46.81913 11769 ft 293 kts 287°
2026-05-05 01:00 25.06753 46.79924 11315 ft 294 kts 305°
2026-05-05 01:01 25.08221 46.78392 10791 ft 300 kts 324°
2026-05-05 01:01 25.10021 46.77230 10339 ft 297 kts 326°
2026-05-05 01:01 25.11793 46.76100 9993 ft 291 kts 326°
2026-05-05 01:01 25.13537 46.75001 9627 ft 286 kts 326°
2026-05-05 01:02 25.15251 46.73919 9234 ft 281 kts 326°
2026-05-05 01:02 25.16930 46.72854 8860 ft 276 kts 326°
2026-05-05 01:02 25.18585 46.71805 8497 ft 273 kts 326°
2026-05-05 01:02 25.20206 46.70731 8123 ft 267 kts 318°
2026-05-05 01:03 25.21361 46.69205 7760 ft 255 kts 294°
2026-05-05 01:03 25.21765 46.68008 7528 ft 248 kts 277°
2026-05-05 01:03 25.21675 46.65560 7072 ft 238 kts 249°
2026-05-05 01:03 25.20943 46.63949 6738 ft 234 kts 237°
2026-05-05 01:04 25.20128 46.62415 6513 ft 227 kts 237°
2026-05-05 01:04 25.18691 46.60030 6303 ft 219 kts 219°
2026-05-05 01:04 25.17376 46.59192 6180 ft 219 kts 198°
2026-05-05 01:05 25.15874 46.59036 5974 ft 223 kts 173°
2026-05-05 01:05 25.14434 46.59621 5700 ft 223 kts 159°
2026-05-05 01:05 25.13047 46.60415 5395 ft 221 kts 154°
2026-05-05 01:05 25.11718 46.61257 5112 ft 218 kts 153°
2026-05-05 01:06 25.10447 46.62067 4850 ft 203 kts 153°
2026-05-05 01:06 25.09296 46.62807 4644 ft 183 kts 153°
2026-05-05 01:06 25.08221 46.63493 4414 ft 176 kts 153°
2026-05-05 01:06 25.07175 46.64160 4194 ft 168 kts 153°
2026-05-05 01:07 25.06200 46.64777 3988 ft 155 kts 153°
2026-05-05 01:07 25.05295 46.65351 3806 ft 147 kts 153°
2026-05-05 01:07 25.04413 46.65912 3628 ft 145 kts 153°
2026-05-05 01:07 25.03543 46.66461 3453 ft 142 kts 152°
2026-05-05 01:08 25.02688 46.67006 3272 ft 142 kts 151°
2026-05-05 01:08 25.01854 46.67537 3101 ft 133 kts 151°
2026-05-05 01:08 25.01035 46.68054 2916 ft 139 kts 150°
2026-05-05 01:08 25.00196 46.68592 2735 ft 143 kts 150°
2026-05-05 01:09 24.99294 46.69159 2516 ft 153 kts 148°
2026-05-05 01:09 24.98369 46.69769 2310 ft 155 kts 148°
2026-05-05 01:09 24.97465 46.70347 2061 ft 147 kts 149°
2026-05-05 01:09 24.96735 46.70808 2042 ft 130 kts 150°
2026-05-05 01:10 24.96036 46.71247 2044 ft 100 kts 150°
2026-05-05 01:10 24.95577 46.71534 2045 ft 60 kts 150°
2026-05-05 01:10 24.95268 46.71730 2044 ft 42 kts 150°
2026-05-05 01:10 24.95043 46.71873 2042 ft 26 kts 150°
2026-05-05 01:11 24.94934 46.71888 2042 ft 13 kts 224°
2026-05-05 01:11 24.94873 46.71790 2042 ft 16 kts 240°
2026-05-05 01:11 24.94817 46.71685 2045 ft 16 kts 240°
2026-05-05 01:11 24.94764 46.71596 2043 ft 12 kts 216°
2026-05-05 01:12 24.94700 46.71602 2042 ft 5 kts 175°
2026-05-05 01:12 24.94673 46.71588 2045 ft 5 kts 216°
2026-05-05 01:12 24.94653 46.71558 2040 ft 5 kts 239°
2026-05-05 01:12 24.94648 46.71550 2039 ft 1 kts 239°
2026-05-05 01:13 24.94646 46.71544 2041 ft 1 kts 240°
2026-05-05 01:13 24.94640 46.71534 2043 ft 2 kts 240°
2026-05-05 01:13 24.94635 46.71523 2045 ft 0 kts 240°
2026-05-05 01:38 24.94636 46.71526 2037 ft 3 kts 240°
2026-05-05 01:38 24.94642 46.71537 2047 ft 2 kts 240°